This demonstration page uses our WeatherBlox Daily Observations layout. Learn more.

Left ArrowRight Arrow

Hourly Observations for January 21, 2017

Temp ( °F °C ) Dew Point ( °F °C ) Humidity (%) Winds ( mph kmh ) Pressure ( in mb ) Visibility ( mi km ) Precip ( " mm )
12:59 am 00:59 Cloudy with Mist and Fog 48 8.9 45 7.2 89 89 Calm 29.93 1014 3 5 0.00 0.00
1:17 am 01:17 Cloudy with Mist and Fog 48 8.9 46 7.8 93 93 Calm 29.94 1014 3 4 0.00 0.00
1:33 am 01:33 Cloudy with Mist and Fog 48 8.9 45 7.2 89 89 W 3 6 29.94 1014 3 5 0.00 0.00
1:59 am 01:59 Cloudy with Mist and Fog 48 8.9 46 7.8 93 93 Calm 29.94 1014 3 5 0.00 0.00
2:42 am 02:42 Cloudy with Mist and Fog 48 8.9 46 7.8 93 93 WNW 3 6 29.94 1014 3 5 0.00 0.00
2:49 am 02:49 Cloudy with Mist and Fog 48 8.9 46 7.8 93 93 W 3 6 29.97 1015 2 3 0.00 0.00
2:59 am 02:59 Cloudy with Mist and Fog 48 8.9 46 7.8 93 93 W 3 6 29.95 1014 2 3 0.00 0.00
3:11 am 03:11 Cloudy with Mist and Fog 48 8.9 46 7.8 93 93 Calm 29.94 1014 2 2 0.00 0.00
3:43 am 03:43 Cloudy with Mist and Fog 48 8.9 46 7.8 93 93 Calm 29.94 1014 1 2 0.00 0.00
3:59 am 03:59 Cloudy with Mist and Fog 48 8.9 46 7.8 93 93 Calm 29.94 1014 1 2 0.00 0.00
4:26 am 04:26 Cloudy with Mist and Fog 48 8.9 46 7.8 93 93 Calm 29.94 1014 1 2 0.00 0.00
4:39 am 04:39 Cloudy with Mist and Fog 48 8.9 47 8.3 96 96 Calm 29.94 1014 1 1 0.00 0.00
4:52 am 04:52 Cloudy with Fog 48 8.9 47 8.3 96 96 Calm 29.94 1014 1 1 0.00 0.00
4:59 am 04:59 Mostly Cloudy with Fog 48 8.9 46 7.8 93 93 Calm 29.93 1014 1 1 0.00 0.00
5:37 am 05:37 Mostly Cloudy with Mist and Fog 48 8.9 46 7.8 93 93 ENE 3 6 29.94 1014 1 1 0.00 0.00
5:49 am 05:49 Cloudy with Mist and Fog 48 8.9 46 7.8 93 93 Calm 29.94 1014 1 2 0.00 0.00
5:59 am 05:59 Cloudy with Mist and Fog 48 8.9 46 7.8 93 93 Calm 29.93 1014 1 2 0.00 0.00
6:06 am 06:06 Cloudy with Mist and Fog 48 8.9 46 7.8 93 93 Calm 29.94 1014 1 1 0.00 0.00
6:42 am 06:42 Cloudy with Mist and Fog 48 8.9 47 8.3 96 96 Calm 29.94 1014 1 2 0.00 0.00
6:57 am 06:57 Cloudy with Mist and Fog 48 9 46 8 94 94 S 3 6 29.94 1014 2 3 0.00 0.00
6:58 am 06:58 Cloudy with Mist and Fog 48 8.9 46 7.8 93 93 Calm 29.95 1014 2 3 0.00 0.00
7:37 am 07:37 Cloudy with Mist and Fog 48 8.9 46 7.8 93 93 SE 3 6 29.94 1014 1 2 0.00 0.00
7:59 am 07:59 Cloudy with Mist and Fog 48 8.9 46 7.8 93 93 SE 5 7 29.95 1014 1 2 0.00 0.00
8:37 am 08:37 Cloudy with Fog 49 9.4 47 8.3 93 93 S 6 9 29.94 1014 1 1 0.00 0.00
8:59 am 08:59 Cloudy with Fog 49 9.4 47 8.3 93 93 SSW 6 9 29.94 1014 1 1 0.00 0.00
9:59 am 09:59 Cloudy with Mist and Fog 49 9.4 48 8.9 97 97 S 5 7 29.96 1015 2 2 0.00 0.00
10:59 am 10:59 Cloudy with Mist and Fog 50 10 49 9.4 96 96 SSW 3 6 29.94 1014 2 2 0.00 0.00
11:11 am 11:11 Cloudy with Mist and Fog 50 10 49 9.4 96 96 SW 3 6 29.94 1014 3 4 0.00 0.00
11:37 am 11:37 Cloudy with Mist and Fog 51 10.6 49 9.4 92 92 SE 3 6 29.91 1013 3 4 0.00 0.00
11:46 am 11:46 Cloudy with Mist and Fog 51 10.6 48 8.9 89 89 S 5 7 29.91 1013 4 6 0.00 0.00
11:59 am 11:59 Cloudy with Mist and Fog 51 10.6 49 9.4 92 92 VRB 3 6 29.90 1013 5 8 0.00 0.00
12:46 pm 12:46 Cloudy with Mist and Fog 52 11.1 49 9.4 89 89 VRB 5 7 29.88 1012 6 10 0.00 0.00
12:59 pm 12:59 Cloudy with Mist and Fog 53 11.7 50 10 89 89 VRB 5 7 29.88 1012 6 10 0.00 0.00
1:47 pm 13:47 Cloudy with Mist and Fog 54 12.2 50 10 87 87 VRB 7 11 29.85 1011 6 10 0.00 0.00
1:59 pm 13:59 Cloudy 53 11.7 49 9.4 86 86 S 5 7 29.86 1011 7 11 0.00 0.00
2:59 pm 14:59 Cloudy 54 12.2 49 9.4 83 83 Calm 29.85 1011 7 11 0.00 0.00
3:59 pm 15:59 Cloudy 52 11.1 48 8.9 86 86 NNE 6 9 29.84 1011 7 11 0.00 0.00
4:24 pm 16:24 Mostly Cloudy with Mist and Fog 52 11.1 48 8.9 86 86 Calm 29.85 1011 5 8 0.00 0.00
4:49 pm 16:49 Cloudy with Mist and Fog 51 10.6 48 8.9 89 89 ENE 3 6 29.83 1010 6 10 0.00 0.00
4:59 pm 16:59 Cloudy with Mist and Fog 51 10.6 48 8.9 89 89 ENE 3 6 29.84 1011 6 10 0.00 0.00
5:59 pm 17:59 Cloudy 51 10.6 48 8.9 89 89 E 3 6 29.83 1010 7 11 0.00 0.00
6:59 pm 18:59 Cloudy 52 11.1 49 9.4 89 89 E 5 7 29.81 1009 7 11 0.00 0.00
7:26 pm 19:26 Partly Cloudy 51 10.6 49 9.4 92 92 ESE 5 7 29.80 1009 7 11 0.00 0.00
7:34 pm 19:34 Mostly Cloudy with Mist and Fog 52 11.1 49 9.4 89 89 ESE 6 9 29.80 1009 6 10 0.00 0.00
7:45 pm 19:45 Cloudy 52 11.1 49 9.4 89 89 E 6 9 29.80 1009 7 11 0.00 0.00
7:59 pm 19:59 Cloudy 52 11.1 50 10 93 93 ESE 5 7 29.80 1009 7 11 0.00 0.00
8:22 pm 20:22 Cloudy 52 11.1 50 10 93 93 ESE 6 9 29.80 1009 7 11 0.00 0.00
8:59 pm 20:59 Cloudy with Light Rain 52 11.1 49 9.4 89 89 ESE 6 9 29.78 1009 4 6 0.00 0.03
9:24 pm 21:24 Cloudy with Light Rain 51 10.6 49 9.4 92 92 E 6 9 29.77 1008 5 8 0.01 0.25
9:59 pm 21:59 Cloudy 50 10 48 8.9 93 93 ENE 3 6 29.75 1008 7 11 0.01 0.25
10:07 pm 22:07 Cloudy with Light Rain 50 10 48 8.9 93 93 ENE 7 11 29.74 1007 4 6 0.01 0.25
10:18 pm 22:18 Cloudy with Light Rain 49 9.4 47 8.3 93 93 ENE 6 9 29.74 1007 3 5 0.03 0.76
10:43 pm 22:43 Cloudy with Rain 49 9.4 47 8.3 93 93 ENE 6 9 29.71 1006 2 3 0.10 2.54
10:55 pm 22:55 Cloudy with Heavy Rain 48 9 46 8 94 94 E 5 7 29.71 1006 1 2 0.39 9.91
10:59 pm 22:59 Cloudy with Heavy Rain 49 9.4 47 8.3 93 93 ENE 7 11 29.71 1006 1 2 0.50 12.70
11:04 pm 23:04 Cloudy with Rain 49 9.4 47 8.3 93 93 NE 6 9 29.71 1006 1 2 0.03 0.76
11:22 pm 23:22 Cloudy with Light Rain 49 9.4 47 8.3 93 93 ENE 6 9 29.71 1006 5 8 0.12 3.05
11:35 pm 23:35 Cloudy with Rain 49 9.4 48 8.9 97 97 NW 9 15 29.71 1006 2 2 0.25 6.35
11:49 pm 23:49 Cloudy with Light Rain 48 8.9 46 7.8 93 93 NW 6 9 29.71 1006 3 5 0.29 7.37
11:59 pm 23:59 Cloudy with Light Rain 48 8.9 46 7.8 93 93 NE 10 17 29.70 1006 4 6 0.30 7.62

Powered by AerisWeather